Time,TemperatureF,DewpointF,PressureIn,WindDirection,WindDirectionDegrees,WindSpeedMPH,WindSpeedGustMPH,Humidity,HourlyPrecipIn,Conditions,Clouds,dailyrainin,SoftwareType,DateUTC
2013-10-16 00:00:00,71.4,48.3,30.04,North,6,5.4,6.3,44,0.00,,,0.00,WUHU216WMR968SP,2013-10-16 07:00:00,
2013-10-16 00:05:00,71.1,48.0,30.04,North,9,4.0,6.3,44,0.00,,,0.00,WUHU216WMR968SP,2013-10-16 07:05:00,
2013-10-16 00:10:00,71.2,48.1,30.04,North,0,3.6,6.3,44,0.00,,,0.00,WUHU216WMR968SP,2013-10-16 07:10:00,
2013-10-16 00:15:00,71.2,48.1,30.04,NNE,19,3.6,7.2,44,0.00,,,0.00,WUHU216WMR968SP,2013-10-16 07:15:00,
2013-10-16 00:20:00,71.4,48.3,30.04,North,357,3.1,7.2,44,0.00,,,0.00,WUHU216WMR968SP,2013-10-16 07:20:00,
2013-10-16 00:25:00,71.4,48.3,30.04,North,1,3.1,5.8,44,0.00,,,0.00,WUHU216WMR968SP,2013-10-16 07:25:00,
2013-10-16 00:30:00,71.8,48.7,30.04,NNE,22,3.1,5.8,44,0.00,,,0.00,WUHU216WMR968SP,2013-10-16 07:30:00,
2013-10-16 00:35:00,72.3,49.1,30.04,NNE,23,2.7,5.8,44,0.00,,,0.00,WUHU216WMR968SP,2013-10-16 07:35:00,
2013-10-16 00:40:00,72.7,49.5,30.04,NNE,15,3.6,5.8,44,0.00,,,0.00,WUHU216WMR968SP,2013-10-16 07:40:00,
2013-10-16 00:45:00,72.9,49.7,30.04,NNE,19,3.6,5.8,44,0.00,,,0.00,WUHU216WMR968SP,2013-10-16 07:45:00,
2013-10-16 00:50:00,73.0,49.8,30.04,East,83,2.7,5.8,44,0.00,,,0.00,WUHU216WMR968SP,2013-10-16 07:50:00,
2013-10-16 00:55:00,73.0,49.8,30.04,East,100,0.0,6.3,44,0.00,,,0.00,WUHU216WMR968SP,2013-10-16 07:55:00,
2013-10-16 01:00:00,73.0,49.8,30.04,East,83,3.1,7.6,44,0.00,,,0.00,WUHU216WMR968SP,2013-10-16 08:00:00,
2013-10-16 01:05:00,72.7,49.5,30.04,East,86,3.1,7.6,44,0.00,,,0.00,WUHU216WMR968SP,2013-10-16 08:05:00,
2013-10-16 01:10:00,72.5,49.3,30.04,SE,129,0.0,4.0,44,0.00,,,0.00,WUHU216WMR968SP,2013-10-16 08:10:00,
2013-10-16 01:15:00,72.1,48.9,30.04,ESE,107,3.1,6.3,44,0.00,,,0.00,WUHU216WMR968SP,2013-10-16 08:15:00,
2013-10-16 01:20:00,72.0,48.9,30.04,East,93,3.1,7.6,44,0.00,,,0.00,WUHU216WMR968SP,2013-10-16 08:20:00,
2013-10-16 01:25:00,71.6,48.5,30.04,East,84,4.0,7.6,44,0.00,,,0.00,WUHU216WMR968SP,2013-10-16 08:25:00,
2013-10-16 01:30:00,71.6,48.5,30.04,SE,129,2.7,6.3,44,0.00,,,0.00,WUHU216WMR968SP,2013-10-16 08:30:00,
2013-10-16 01:35:00,71.4,48.3,30.04,East,86,0.0,6.3,44,0.00,,,0.00,WUHU216WMR968SP,2013-10-16 08:35:00,
2013-10-16 01:40:00,71.6,48.5,30.04,East,91,0.0,6.3,44,0.00,,,0.00,WUHU216WMR968SP,2013-10-16 08:40:00,
2013-10-16 01:45:00,71.6,48.5,30.04,SE,142,0.0,6.3,44,0.00,,,0.00,WUHU216WMR968SP,2013-10-16 08:45:00,
2013-10-16 01:50:00,71.2,48.1,30.04,East,96,4.5,9.2,44,0.00,,,0.00,WUHU216WMR968SP,2013-10-16 08:50:00,
2013-10-16 01:55:00,71.2,48.1,30.04,ENE,73,0.0,9.2,44,0.00,,,0.00,WUHU216WMR968SP,2013-10-16 08:55:00,
2013-10-16 02:00:00,71.2,48.1,30.04,East,92,3.1,4.9,44,0.00,,,0.00,WUHU216WMR968SP,2013-10-16 09:00:00,
2013-10-16 02:05:00,71.1,48.0,30.04,ESE,112,0.0,4.9,44,0.00,,,0.00,WUHU216WMR968SP,2013-10-16 09:05:00,
2013-10-16 02:10:00,70.7,47.7,30.04,East,85,0.0,3.6,44,0.00,,,0.00,WUHU216WMR968SP,2013-10-16 09:10:00,
2013-10-16 02:15:00,70.5,47.5,30.04,East,85,0.0,3.6,44,0.00,,,0.00,WUHU216WMR968SP,2013-10-16 09:15:00,
2013-10-16 02:20:00,70.0,47.0,30.04,East,85,0.0,0.0,44,0.00,,,0.00,WUHU216WMR968SP,2013-10-16 09:20:00,
2013-10-16 02:25:00,69.6,47.3,30.04,East,85,0.0,0.0,45,0.00,,,0.00,WUHU216WMR968SP,2013-10-16 09:25:00,
2013-10-16 02:30:00,69.3,47.0,30.04,East,85,0.0,0.0,45,0.00,,,0.00,WUHU216WMR968SP,2013-10-16 09:30:00,
2013-10-16 02:35:00,68.9,46.6,30.04,East,85,0.0,0.0,45,0.00,,,0.00,WUHU216WMR968SP,2013-10-16 09:35:00,
2013-10-16 02:40:00,68.7,46.5,30.04,East,86,0.0,0.0,45,0.00,,,0.00,WUHU216WMR968SP,2013-10-16 09:40:00,
2013-10-16 02:45:00,68.7,46.5,30.04,East,86,0.0,0.0,45,0.00,,,0.00,WUHU216WMR968SP,2013-10-16 09:45:00,
2013-10-16 02:50:00,68.5,46.3,30.04,East,86,0.0,0.0,45,0.00,,,0.00,WUHU216WMR968SP,2013-10-16 09:50:00,
2013-10-16 02:55:00,68.2,46.0,30.04,East,86,0.0,0.0,45,0.00,,,0.00,WUHU216WMR968SP,2013-10-16 09:55:00,
2013-10-16 03:00:00,67.6,45.5,30.04,East,86,0.0,0.0,45,0.00,,,0.00,WUHU216WMR968SP,2013-10-16 10:00:00,
2013-10-16 03:05:00,67.1,45.0,30.04,NE,36,2.7,3.6,45,0.00,,,0.00,WUHU216WMR968SP,2013-10-16 10:05:00,
2013-10-16 03:10:00,67.1,45.0,30.04,ENE,77,0.0,3.6,45,0.00,,,0.00,WUHU216WMR968SP,2013-10-16 10:10:00,
2013-10-16 03:15:00,66.9,44.8,30.04,ENE,77,0.0,2.7,45,0.00,,,0.00,WUHU216WMR968SP,2013-10-16 10:15:00,
2013-10-16 03:20:00,66.7,44.6,30.04,ENE,74,0.0,3.1,45,0.00,,,0.00,WUHU216WMR968SP,2013-10-16 10:20:00,
2013-10-16 03:25:00,66.4,44.4,30.04,NNW,337,0.0,3.1,45,0.00,,,0.00,WUHU216WMR968SP,2013-10-16 10:25:00,
2013-10-16 03:30:00,66.2,44.2,30.04,North,9,0.0,2.7,45,0.00,,,0.00,WUHU216WMR968SP,2013-10-16 10:30:00,
2013-10-16 03:35:00,66.2,44.2,30.04,ENE,71,0.0,3.6,45,0.00,,,0.00,WUHU216WMR968SP,2013-10-16 10:35:00,
2013-10-16 03:40:00,66.4,44.4,30.04,North,353,0.0,3.6,45,0.00,,,0.00,WUHU216WMR968SP,2013-10-16 10:40:00,
2013-10-16 03:45:00,66.4,44.4,30.04,NNE,21,0.0,3.6,45,0.00,,,0.00,WUHU216WMR968SP,2013-10-16 10:45:00,
2013-10-16 03:50:00,66.4,44.4,30.04,ENE,72,3.6,5.4,45,0.00,,,0.00,WUHU216WMR968SP,2013-10-16 10:50:00,
2013-10-16 03:55:00,66.9,44.8,30.04,ESE,103,0.0,5.4,45,0.00,,,0.00,WUHU216WMR968SP,2013-10-16 10:55:00,
2013-10-16 04:00:00,67.6,45.5,30.04,ESE,113,3.1,8.3,45,0.00,,,0.00,WUHU216WMR968SP,2013-10-16 11:00:00,
2013-10-16 04:05:00,68.7,46.5,30.04,NE,46,4.5,11.0,45,0.00,,,0.00,WUHU216WMR968SP,2013-10-16 11:05:00,
2013-10-16 04:10:00,69.8,46.8,30.04,North,2,4.0,11.0,44,0.00,,,0.00,WUHU216WMR968SP,2013-10-16 11:10:00,
2013-10-16 04:15:00,70.9,47.8,30.04,North,0,5.4,8.3,44,0.00,,,0.00,WUHU216WMR968SP,2013-10-16 11:15:00,
2013-10-16 04:20:00,71.4,48.3,30.04,ENE,57,4.0,8.3,44,0.00,,,0.00,WUHU216WMR968SP,2013-10-16 11:20:00,
2013-10-16 04:25:00,72.0,48.9,30.04,NNE,28,4.5,8.3,44,0.00,,,0.00,WUHU216WMR968SP,2013-10-16 11:25:00,
2013-10-16 04:30:00,72.5,49.3,30.04,NNE,25,4.9,9.6,44,0.00,,,0.00,WUHU216WMR968SP,2013-10-16 11:30:00,
2013-10-16 04:35:00,72.9,49.7,30.04,East,88,3.6,13.2,44,0.00,,,0.00,WUHU216WMR968SP,2013-10-16 11:35:00,
2013-10-16 04:40:00,73.0,49.8,30.04,North,353,4.0,13.2,44,0.00,,,0.00,WUHU216WMR968SP,2013-10-16 11:40:00,
2013-10-16 04:45:00,73.0,49.8,30.04,NE,55,6.3,9.6,44,0.00,,,0.00,WUHU216WMR968SP,2013-10-16 11:45:00,
2013-10-16 04:50:00,72.9,49.7,30.04,East,99,4.5,15.0,44,0.00,,,0.00,WUHU216WMR968SP,2013-10-16 11:50:00,
2013-10-16 04:55:00,72.9,49.7,30.04,ESE,109,8.7,15.0,44,0.00,,,0.00,WUHU216WMR968SP,2013-10-16 11:55:00,
2013-10-16 05:00:00,72.9,49.7,30.04,ENE,61,4.9,13.2,44,0.00,,,0.00,WUHU216WMR968SP,2013-10-16 12:00:00,
2013-10-16 05:05:00,72.9,49.7,30.04,NE,50,5.4,13.2,44,0.00,,,0.00,WUHU216WMR968SP,2013-10-16 12:05:00,
2013-10-16 05:10:00,72.5,49.3,30.04,North,5,4.0,8.7,44,0.00,,,0.00,WUHU216WMR968SP,2013-10-16 12:10:00,
2013-10-16 05:15:00,72.3,49.1,30.04,NNE,19,2.7,8.7,44,0.00,,,0.00,WUHU216WMR968SP,2013-10-16 12:15:00,
2013-10-16 05:20:00,72.0,48.9,30.04,NE,47,4.0,12.3,44,0.00,,,0.00,WUHU216WMR968SP,2013-10-16 12:20:00,
2013-10-16 05:25:00,71.8,48.7,30.04,NNE,15,3.6,14.5,44,0.00,,,0.00,WUHU216WMR968SP,2013-10-16 12:25:00,
2013-10-16 05:30:00,71.6,48.5,30.04,NE,39,3.6,14.5,44,0.00,,,0.00,WUHU216WMR968SP,2013-10-16 12:30:00,
2013-10-16 05:35:00,71.4,48.3,30.04,NNW,344,3.1,5.8,44,0.00,,,0.00,WUHU216WMR968SP,2013-10-16 12:35:00,
2013-10-16 05:40:00,71.4,48.3,30.04,East,90,3.6,8.7,44,0.00,,,0.00,WUHU216WMR968SP,2013-10-16 12:40:00,
2013-10-16 05:45:00,71.2,48.1,30.04,North,5,4.0,8.7,44,0.00,,,0.00,WUHU216WMR968SP,2013-10-16 12:45:00,
2013-10-16 05:50:00,71.2,48.1,30.04,North,9,3.6,5.8,44,0.00,,,0.00,WUHU216WMR968SP,2013-10-16 12:50:00,
2013-10-16 05:55:00,71.2,48.1,30.04,East,90,3.1,5.8,44,0.00,,,0.00,WUHU216WMR968SP,2013-10-16 12:55:00,
2013-10-16 06:00:00,71.1,48.0,30.04,NE,53,4.0,7.2,44,0.00,,,0.00,WUHU216WMR968SP,2013-10-16 13:00:00,
2013-10-16 06:05:00,71.1,48.0,30.04,North,2,3.6,7.2,44,0.00,,,0.00,WUHU216WMR968SP,2013-10-16 13:05:00,
2013-10-16 06:10:00,70.9,47.8,30.07,NNE,20,4.0,6.3,44,0.00,,,0.00,WUHU216WMR968SP,2013-10-16 13:10:00,
2013-10-16 06:15:00,70.9,47.8,30.07,ESE,103,4.5,8.7,44,0.00,,,0.00,WUHU216WMR968SP,2013-10-16 13:15:00,
2013-10-16 06:20:00,70.9,47.8,30.07,ESE,108,3.6,8.7,44,0.00,,,0.00,WUHU216WMR968SP,2013-10-16 13:20:00,
2013-10-16 06:25:00,70.9,47.8,30.07,ENE,64,2.7,9.6,44,0.00,,,0.00,WUHU216WMR968SP,2013-10-16 13:25:00,
2013-10-16 06:30:00,70.7,47.7,30.07,ENE,65,5.4,9.6,44,0.00,,,0.00,WUHU216WMR968SP,2013-10-16 13:30:00,
2013-10-16 06:35:00,70.5,47.5,30.07,NE,49,4.9,8.7,44,0.00,,,0.00,WUHU216WMR968SP,2013-10-16 13:35:00,
2013-10-16 06:40:00,70.5,47.5,30.07,ENE,78,3.6,10.1,44,0.00,,,0.00,WUHU216WMR968SP,2013-10-16 13:40:00,
2013-10-16 06:45:00,70.5,47.5,30.07,NW,304,2.7,10.5,44,0.00,,,0.00,WUHU216WMR968SP,2013-10-16 13:45:00,
2013-10-16 06:50:00,70.3,47.3,30.07,NNE,14,2.7,10.5,44,0.00,,,0.00,WUHU216WMR968SP,2013-10-16 13:50:00,
2013-10-16 06:55:00,70.3,47.3,30.07,NNE,23,3.6,7.2,44,0.00,,,0.00,WUHU216WMR968SP,2013-10-16 13:55:00,
2013-10-16 07:00:00,70.3,47.3,30.07,NNW,348,2.7,5.4,44,0.00,,,0.00,WUHU216WMR968SP,2013-10-16 14:00:00,
2013-10-16 07:05:00,70.3,47.3,30.07,North,7,2.7,7.2,44,0.00,,,0.00,WUHU216WMR968SP,2013-10-16 14:05:00,
2013-10-16 07:10:00,70.2,47.2,30.07,North,2,3.6,7.2,44,0.00,,,0.00,WUHU216WMR968SP,2013-10-16 14:10:00,
2013-10-16 07:15:00,70.0,47.0,30.07,North,4,3.1,4.9,44,0.00,,,0.00,WUHU216WMR968SP,2013-10-16 14:15:00,
2013-10-16 07:20:00,69.8,46.8,30.07,North,10,0.0,4.9,44,0.00,,,0.00,WUHU216WMR968SP,2013-10-16 14:20:00,
2013-10-16 07:25:00,69.8,46.8,30.07,NNE,15,0.0,4.0,44,0.00,,,0.00,WUHU216WMR968SP,2013-10-16 14:25:00,
2013-10-16 07:30:00,69.6,47.3,30.07,NNW,345,0.0,0.0,45,0.00,,,0.00,WUHU216WMR968SP,2013-10-16 14:30:00,
2013-10-16 07:35:00,69.4,47.1,30.07,WNW,302,0.0,0.0,45,0.00,,,0.00,WUHU216WMR968SP,2013-10-16 14:35:00,
2013-10-16 07:40:00,69.3,47.0,30.07,SE,127,0.0,0.0,45,0.00,,,0.00,WUHU216WMR968SP,2013-10-16 14:40:00,
2013-10-16 07:45:00,68.9,46.6,30.07,ESE,114,0.0,0.0,45,0.00,,,0.00,WUHU216WMR968SP,2013-10-16 14:45:00,
2013-10-16 07:50:00,68.7,46.5,30.07,NNW,336,0.0,0.0,45,0.00,,,0.00,WUHU216WMR968SP,2013-10-16 14:50:00,
2013-10-16 07:55:00,68.7,46.5,30.07,SW,232,0.0,0.0,45,0.00,,,0.00,WUHU216WMR968SP,2013-10-16 14:55:00,
2013-10-16 08:00:00,69.1,46.8,30.07,NNE,12,0.0,0.0,45,0.00,,,0.00,WUHU216WMR968SP,2013-10-16 15:00:00,
2013-10-16 08:05:00,69.6,47.3,30.07,SSE,164,0.0,0.0,45,0.00,,,0.00,WUHU216WMR968SP,2013-10-16 15:05:00,
2013-10-16 08:10:00,70.0,47.0,30.10,WSW,251,0.0,0.0,44,0.00,,,0.00,WUHU216WMR968SP,2013-10-16 15:10:00,
2013-10-16 08:15:00,70.2,47.2,30.10,NW,306,0.0,0.0,44,0.00,,,0.00,WUHU216WMR968SP,2013-10-16 15:15:00,
2013-10-16 08:20:00,70.0,47.0,30.10,SW,226,3.6,4.0,44,0.00,,,0.00,WUHU216WMR968SP,2013-10-16 15:20:00,
2013-10-16 08:25:00,70.0,47.0,30.10,SW,229,2.2,4.0,44,0.00,,,0.00,WUHU216WMR968SP,2013-10-16 15:25:00,
2013-10-16 08:30:00,69.8,46.8,30.10,WSW,237,2.7,4.0,44,0.00,,,0.00,WUHU216WMR968SP,2013-10-16 15:30:00,
2013-10-16 08:35:00,70.2,47.2,30.10,SE,144,0.0,4.9,44,0.00,,,0.00,WUHU216WMR968SP,2013-10-16 15:35:00,
2013-10-16 08:40:00,70.9,47.8,30.10,East,81,4.0,5.8,44,0.00,,,0.00,WUHU216WMR968SP,2013-10-16 15:40:00,
2013-10-16 08:45:00,71.6,48.5,30.10,East,95,2.7,5.8,44,0.00,,,0.00,WUHU216WMR968SP,2013-10-16 15:45:00,
2013-10-16 08:50:00,72.3,49.1,30.10,ENE,73,3.1,5.4,44,0.00,,,0.00,WUHU216WMR968SP,2013-10-16 15:50:00,
2013-10-16 08:55:00,72.9,49.7,30.10,ENE,74,3.1,5.4,44,0.00,,,0.00,WUHU216WMR968SP,2013-10-16 15:55:00,
2013-10-16 09:00:00,73.2,49.9,30.10,ESE,113,0.0,3.6,44,0.00,,,0.00,WUHU216WMR968SP,2013-10-16 16:00:00,
2013-10-16 09:05:00,73.6,49.7,30.10,South,183,0.0,3.1,43,0.00,,,0.00,WUHU216WMR968SP,2013-10-16 16:05:00,
2013-10-16 09:10:00,73.8,49.9,30.10,South,187,0.0,3.1,43,0.00,,,0.00,WUHU216WMR968SP,2013-10-16 16:10:00,
2013-10-16 09:15:00,74.1,50.1,30.10,SE,129,0.0,0.0,43,0.00,,,0.00,WUHU216WMR968SP,2013-10-16 16:15:00,
2013-10-16 09:20:00,74.7,50.7,30.10,SE,138,0.0,2.2,43,0.00,,,0.00,WUHU216WMR968SP,2013-10-16 16:20:00,
2013-10-16 09:25:00,74.8,50.8,30.10,ESE,120,0.0,3.6,43,0.00,,,0.00,WUHU216WMR968SP,2013-10-16 16:25:00,
2013-10-16 09:30:00,75.2,51.1,30.10,ESE,119,0.0,3.6,43,0.00,,,0.00,WUHU216WMR968SP,2013-10-16 16:30:00,
2013-10-16 09:35:00,75.4,51.3,30.10,SSW,213,0.0,0.0,43,0.00,,,0.00,WUHU216WMR968SP,2013-10-16 16:35:00,
2013-10-16 09:40:00,75.7,51.6,30.10,SW,216,3.6,5.4,43,0.00,,,0.00,WUHU216WMR968SP,2013-10-16 16:40:00,
2013-10-16 09:45:00,75.9,51.8,30.10,SSW,205,3.6,5.4,43,0.00,,,0.00,WUHU216WMR968SP,2013-10-16 16:45:00,
2013-10-16 09:50:00,76.3,52.1,30.10,SW,233,3.1,4.9,43,0.00,,,0.00,WUHU216WMR968SP,2013-10-16 16:50:00,
2013-10-16 09:55:00,76.3,52.1,30.10,WSW,247,3.1,3.6,43,0.00,,,0.00,WUHU216WMR968SP,2013-10-16 16:55:00,
2013-10-16 10:00:00,76.5,52.3,30.10,SW,230,2.2,4.5,43,0.00,,,0.00,WUHU216WMR968SP,2013-10-16 17:00:00,
2013-10-16 10:05:00,76.6,52.4,30.10,SW,222,4.0,5.4,43,0.00,,,0.00,WUHU216WMR968SP,2013-10-16 17:05:00,
2013-10-16 10:10:00,77.0,52.8,30.10,WSW,244,2.2,5.4,43,0.00,,,0.00,WUHU216WMR968SP,2013-10-16 17:10:00,
2013-10-16 10:15:00,77.2,52.9,30.10,SSE,152,2.2,4.9,43,0.00,,,0.00,WUHU216WMR968SP,2013-10-16 17:15:00,
2013-10-16 10:20:00,77.5,53.2,30.10,SW,227,0.0,4.9,43,0.00,,,0.00,WUHU216WMR968SP,2013-10-16 17:20:00,
2013-10-16 10:25:00,77.9,53.6,30.10,WSW,249,3.1,4.0,43,0.00,,,0.00,WUHU216WMR968SP,2013-10-16 17:25:00,
2013-10-16 10:30:00,78.4,54.0,30.10,South,172,3.1,4.9,43,0.00,,,0.00,WUHU216WMR968SP,2013-10-16 17:30:00,
2013-10-16 10:35:00,79.0,53.9,30.10,WSW,238,4.9,6.3,42,0.00,,,0.00,WUHU216WMR968SP,2013-10-16 17:35:00,
2013-10-16 10:40:00,79.0,53.9,30.07,SW,214,3.1,6.3,42,0.00,,,0.00,WUHU216WMR968SP,2013-10-16 17:40:00,
2013-10-16 10:45:00,79.0,53.9,30.07,SSW,207,0.0,5.8,42,0.00,,,0.00,WUHU216WMR968SP,2013-10-16 17:45:00,
2013-10-16 10:50:00,79.3,54.2,30.07,WSW,250,3.1,4.0,42,0.00,,,0.00,WUHU216WMR968SP,2013-10-16 17:50:00,
2013-10-16 10:55:00,79.7,54.5,30.07,WSW,240,3.6,5.4,42,0.00,,,0.00,WUHU216WMR968SP,2013-10-16 17:55:00,
2013-10-16 11:00:00,79.9,54.7,30.07,SSW,200,0.0,6.3,42,0.00,,,0.00,WUHU216WMR968SP,2013-10-16 18:00:00,
2013-10-16 11:05:00,79.7,54.5,30.07,SW,230,0.0,6.3,42,0.00,,,0.00,WUHU216WMR968SP,2013-10-16 18:05:00,
2013-10-16 11:10:00,79.9,54.7,30.07,WSW,257,3.6,5.8,42,0.00,,,0.00,WUHU216WMR968SP,2013-10-16 18:10:00,
2013-10-16 11:15:00,79.7,54.5,30.07,WSW,245,4.5,6.3,42,0.00,,,0.00,WUHU216WMR968SP,2013-10-16 18:15:00,
2013-10-16 11:20:00,79.7,54.5,30.07,WSW,244,4.5,6.3,42,0.00,,,0.00,WUHU216WMR968SP,2013-10-16 18:20:00,
2013-10-16 11:25:00,80.1,54.9,30.07,WSW,247,3.1,6.3,42,0.00,,,0.00,WUHU216WMR968SP,2013-10-16 18:25:00,
2013-10-16 11:30:00,80.2,55.0,30.07,WSW,244,2.2,6.3,42,0.00,,,0.00,WUHU216WMR968SP,2013-10-16 18:30:00,
2013-10-16 11:35:00,80.4,55.2,30.07,SW,227,3.1,5.4,42,0.00,,,0.00,WUHU216WMR968SP,2013-10-16 18:35:00,
2013-10-16 11:40:00,80.4,55.2,30.07,SW,233,0.0,5.8,42,0.00,,,0.00,WUHU216WMR968SP,2013-10-16 18:40:00,
2013-10-16 11:45:00,80.8,55.5,30.07,SW,222,2.2,5.8,42,0.00,,,0.00,WUHU216WMR968SP,2013-10-16 18:45:00,
2013-10-16 11:50:00,80.8,55.5,30.07,North,349,0.0,5.8,42,0.00,,,0.00,WUHU216WMR968SP,2013-10-16 18:50:00,
2013-10-16 11:55:00,80.8,55.5,30.07,NW,316,4.9,5.8,42,0.00,,,0.00,WUHU216WMR968SP,2013-10-16 18:55:00,
2013-10-16 12:01:00,81.0,55.7,30.07,West,272,2.2,5.8,42,0.00,,,0.00,WUHU216WMR968SP,2013-10-16 19:01:00,
2013-10-16 12:06:00,81.0,55.7,30.07,NW,316,3.1,4.9,42,0.00,,,0.00,WUHU216WMR968SP,2013-10-16 19:06:00,
2013-10-16 12:11:00,81.1,55.8,30.04,West,271,4.0,7.2,42,0.00,,,0.00,WUHU216WMR968SP,2013-10-16 19:11:00,
2013-10-16 12:16:00,81.1,55.8,30.04,West,274,0.0,7.2,42,0.00,,,0.00,WUHU216WMR968SP,2013-10-16 19:16:00,
2013-10-16 12:21:00,81.3,56.0,30.04,West,260,3.1,4.9,42,0.00,,,0.00,WUHU216WMR968SP,2013-10-16 19:21:00,
2013-10-16 12:26:00,81.5,56.2,30.04,NW,306,0.0,4.9,42,0.00,,,0.00,WUHU216WMR968SP,2013-10-16 19:26:00,
2013-10-16 12:31:00,81.9,56.5,30.04,SSW,208,0.0,6.3,42,0.00,,,0.00,WUHU216WMR968SP,2013-10-16 19:31:00,
2013-10-16 12:36:00,82.4,56.3,30.04,ESE,122,3.1,6.3,41,0.00,,,0.00,WUHU216WMR968SP,2013-10-16 19:36:00,
2013-10-16 12:41:00,83.3,57.1,30.04,South,173,2.2,5.8,41,0.00,,,0.00,WUHU216WMR968SP,2013-10-16 19:41:00,
2013-10-16 12:46:00,84.2,57.9,30.04,South,190,2.7,5.8,41,0.00,,,0.00,WUHU216WMR968SP,2013-10-16 19:46:00,
2013-10-16 12:51:00,84.9,58.5,30.04,South,180,3.1,6.3,41,0.00,,,0.00,WUHU216WMR968SP,2013-10-16 19:51:00,
2013-10-16 12:56:00,85.1,58.7,30.04,SSE,165,0.0,6.3,41,0.00,,,0.00,WUHU216WMR968SP,2013-10-16 19:56:00,
2013-10-16 13:01:00,85.5,59.1,30.04,ENE,77,3.1,5.4,41,0.00,,,0.00,WUHU216WMR968SP,2013-10-16 20:01:00,
2013-10-16 13:06:00,85.5,59.1,30.04,SSE,162,4.0,5.8,41,0.00,,,0.00,WUHU216WMR968SP,2013-10-16 20:06:00,
2013-10-16 13:11:00,85.3,58.9,30.04,SSE,163,5.8,8.3,41,0.00,,,0.00,WUHU216WMR968SP,2013-10-16 20:11:00,
2013-10-16 13:16:00,85.3,58.9,30.04,WNW,299,0.0,8.3,41,0.00,,,0.00,WUHU216WMR968SP,2013-10-16 20:16:00,
2013-10-16 13:21:00,84.6,58.3,30.04,South,183,4.5,6.3,41,0.00,,,0.00,WUHU216WMR968SP,2013-10-16 20:21:00,
2013-10-16 13:26:00,84.9,58.5,30.01,WSW,253,4.9,8.3,41,0.00,,,0.00,WUHU216WMR968SP,2013-10-16 20:26:00,
2013-10-16 13:31:00,85.3,58.9,30.01,SSE,149,2.7,8.3,41,0.00,,,0.00,WUHU216WMR968SP,2013-10-16 20:31:00,
2013-10-16 13:36:00,85.6,59.2,30.01,SW,235,3.1,8.1,41,0.00,,,0.00,WUHU216WMR968SP,2013-10-16 20:36:00,
2013-10-16 13:41:00,85.8,59.4,30.01,WSW,245,3.6,7.2,41,0.00,,,0.00,WUHU216WMR968SP,2013-10-16 20:41:00,
2013-10-16 13:46:00,85.8,59.4,30.01,SW,232,4.0,7.2,41,0.00,,,0.00,WUHU216WMR968SP,2013-10-16 20:46:00,
2013-10-16 13:51:00,85.5,59.1,30.01,NW,309,2.2,5.8,41,0.00,,,0.00,WUHU216WMR968SP,2013-10-16 20:51:00,
2013-10-16 13:56:00,85.1,58.7,30.01,SW,233,4.5,7.6,41,0.00,,,0.00,WUHU216WMR968SP,2013-10-16 20:56:00,
2013-10-16 14:01:00,84.9,58.5,30.01,SW,215,4.5,7.6,41,0.00,,,0.00,WUHU216WMR968SP,2013-10-16 21:01:00,
2013-10-16 14:06:00,85.3,58.9,30.01,SW,236,4.0,8.3,41,0.00,,,0.00,WUHU216WMR968SP,2013-10-16 21:06:00,
2013-10-16 14:11:00,85.3,58.9,30.01,NNW,348,6.3,8.7,41,0.00,,,0.00,WUHU216WMR968SP,2013-10-16 21:11:00,
2013-10-16 14:16:00,84.9,58.5,30.01,NNW,327,3.6,8.7,41,0.00,,,0.00,WUHU216WMR968SP,2013-10-16 21:16:00,
2013-10-16 14:21:00,84.4,58.1,30.01,NW,306,3.6,6.3,41,0.00,,,0.00,WUHU216WMR968SP,2013-10-16 21:21:00,
2013-10-16 14:26:00,84.7,58.4,30.01,WNW,294,4.5,6.3,41,0.00,,,0.00,WUHU216WMR968SP,2013-10-16 21:26:00,
2013-10-16 14:31:00,84.2,57.9,30.01,SSW,204,0.0,8.1,41,0.00,,,0.00,WUHU216WMR968SP,2013-10-16 21:31:00,
2013-10-16 14:36:00,84.2,57.9,30.01,West,262,3.1,8.1,41,0.00,,,0.00,WUHU216WMR968SP,2013-10-16 21:36:00,
2013-10-16 14:41:00,84.2,57.9,30.01,West,266,4.5,8.3,41,0.00,,,0.00,WUHU216WMR968SP,2013-10-16 21:41:00,
2013-10-16 14:46:00,84.2,57.9,30.01,SW,234,6.7,11.0,41,0.00,,,0.00,WUHU216WMR968SP,2013-10-16 21:46:00,
2013-10-16 14:51:00,84.6,58.3,30.01,WNW,284,3.6,11.0,41,0.00,,,0.00,WUHU216WMR968SP,2013-10-16 21:51:00,
2013-10-16 14:56:00,84.6,58.3,29.98,North,357,0.0,10.1,41,0.00,,,0.00,WUHU216WMR968SP,2013-10-16 21:56:00,
2013-10-16 15:01:00,84.4,58.1,29.98,NW,326,4.0,6.3,41,0.00,,,0.00,WUHU216WMR968SP,2013-10-16 22:01:00,
2013-10-16 15:06:00,84.2,57.9,29.98,WSW,243,3.1,8.3,41,0.00,,,0.00,WUHU216WMR968SP,2013-10-16 22:06:00,
2013-10-16 15:11:00,84.4,58.1,30.01,WSW,256,4.5,8.3,41,0.00,,,0.00,WUHU216WMR968SP,2013-10-16 22:11:00,
2013-10-16 15:16:00,84.6,58.3,30.01,SW,233,5.4,8.1,41,0.00,,,0.00,WUHU216WMR968SP,2013-10-16 22:16:00,
2013-10-16 15:21:00,84.7,58.4,30.01,SSW,207,4.5,8.1,41,0.00,,,0.00,WUHU216WMR968SP,2013-10-16 22:21:00,
2013-10-16 15:26:00,84.9,58.5,30.01,WNW,297,4.0,7.6,41,0.00,,,0.00,WUHU216WMR968SP,2013-10-16 22:26:00,
2013-10-16 15:31:00,84.4,58.1,30.01,SW,226,4.9,7.6,41,0.00,,,0.00,WUHU216WMR968SP,2013-10-16 22:31:00,
2013-10-16 15:36:00,84.4,58.1,30.01,NNW,333,4.0,7.6,41,0.00,,,0.00,WUHU216WMR968SP,2013-10-16 22:36:00,
2013-10-16 15:41:00,84.4,58.1,30.01,West,273,4.0,10.5,41,0.00,,,0.00,WUHU216WMR968SP,2013-10-16 22:41:00,
2013-10-16 15:46:00,84.2,57.9,30.01,WNW,297,2.7,10.5,41,0.00,,,0.00,WUHU216WMR968SP,2013-10-16 22:46:00,
2013-10-16 15:51:00,83.8,57.6,30.01,WSW,256,4.9,8.7,41,0.00,,,0.00,WUHU216WMR968SP,2013-10-16 22:51:00,
2013-10-16 15:56:00,83.7,57.5,30.01,SW,233,2.2,8.7,41,0.00,,,0.00,WUHU216WMR968SP,2013-10-16 22:56:00,
2013-10-16 16:01:00,83.8,57.6,30.01,SW,220,4.5,7.6,41,0.00,,,0.00,WUHU216WMR968SP,2013-10-16 23:01:00,
2013-10-16 16:06:00,84.2,57.9,30.01,SW,222,4.0,8.1,41,0.00,,,0.00,WUHU216WMR968SP,2013-10-16 23:06:00,
2013-10-16 16:11:00,84.0,57.7,30.01,WSW,238,3.1,8.7,41,0.00,,,0.00,WUHU216WMR968SP,2013-10-16 23:11:00,
2013-10-16 16:16:00,83.8,57.6,30.01,West,281,4.0,8.7,41,0.00,,,0.00,WUHU216WMR968SP,2013-10-16 23:16:00,
2013-10-16 16:21:00,83.5,57.3,30.01,West,259,4.9,7.6,41,0.00,,,0.00,WUHU216WMR968SP,2013-10-16 23:21:00,
2013-10-16 16:26:00,83.1,56.9,30.01,SW,221,3.1,7.6,41,0.00,,,0.00,WUHU216WMR968SP,2013-10-16 23:26:00,
2013-10-16 16:31:00,82.9,56.7,30.01,West,270,2.7,6.3,41,0.00,,,0.00,WUHU216WMR968SP,2013-10-16 23:31:00,
2013-10-16 16:36:00,82.9,56.7,30.01,WSW,254,4.0,6.3,41,0.00,,,0.00,WUHU216WMR968SP,2013-10-16 23:36:00,
2013-10-16 16:41:00,82.9,56.7,30.01,WNW,303,4.5,6.3,41,0.00,,,0.00,WUHU216WMR968SP,2013-10-16 23:41:00,
2013-10-16 16:46:00,82.8,56.7,30.01,WSW,241,3.1,6.3,41,0.00,,,0.00,WUHU216WMR968SP,2013-10-16 23:46:00,
2013-10-16 16:51:00,82.9,56.7,30.01,NW,315,3.1,7.6,41,0.00,,,0.00,WUHU216WMR968SP,2013-10-16 23:51:00,
2013-10-16 16:56:00,82.8,56.7,30.01,SW,231,3.1,7.6,41,0.00,,,0.00,WUHU216WMR968SP,2013-10-16 23:56:00,
2013-10-16 17:01:00,82.6,56.5,30.01,WSW,258,4.0,5.8,41,0.00,,,0.00,WUHU216WMR968SP,2013-10-17 00:01:00,
2013-10-16 17:06:00,82.4,56.3,30.01,WNW,298,4.5,7.6,41,0.00,,,0.00,WUHU216WMR968SP,2013-10-17 00:06:00,
2013-10-16 17:11:00,82.2,56.8,30.01,WNW,300,3.1,7.6,42,0.00,,,0.00,WUHU216WMR968SP,2013-10-17 00:11:00,
2013-10-16 17:16:00,81.9,56.5,30.01,SW,225,3.1,8.1,42,0.00,,,0.00,WUHU216WMR968SP,2013-10-17 00:16:00,
2013-10-16 17:21:00,81.7,56.3,30.01,WNW,299,3.1,8.3,42,0.00,,,0.00,WUHU216WMR968SP,2013-10-17 00:21:00,
2013-10-16 17:26:00,81.5,56.2,29.98,NW,311,4.5,8.3,42,0.00,,,0.00,WUHU216WMR968SP,2013-10-17 00:26:00,
2013-10-16 17:31:00,81.1,55.8,29.98,NW,319,5.4,6.3,42,0.00,,,0.00,WUHU216WMR968SP,2013-10-17 00:31:00,
2013-10-16 17:36:00,80.4,55.2,29.98,NW,313,4.5,8.1,42,0.00,,,0.00,WUHU216WMR968SP,2013-10-17 00:36:00,
2013-10-16 17:41:00,80.1,54.9,29.98,West,268,3.6,8.1,42,0.00,,,0.00,WUHU216WMR968SP,2013-10-17 00:41:00,
2013-10-16 17:46:00,79.5,54.4,29.98,West,260,3.6,7.6,42,0.00,,,0.00,WUHU216WMR968SP,2013-10-17 00:46:00,
2013-10-16 17:51:00,79.2,54.1,29.98,NW,310,4.9,6.3,42,0.00,,,0.00,WUHU216WMR968SP,2013-10-17 00:51:00,
2013-10-16 17:56:00,78.8,53.7,30.01,NW,325,3.6,6.3,42,0.00,,,0.00,WUHU216WMR968SP,2013-10-17 00:56:00,
2013-10-16 18:01:00,78.4,54.0,30.01,NW,312,3.1,5.4,43,0.00,,,0.00,WUHU216WMR968SP,2013-10-17 01:01:00,
2013-10-16 18:06:00,77.9,53.6,30.01,NW,312,0.0,5.8,43,0.00,,,0.00,WUHU216WMR968SP,2013-10-17 01:06:00,
2013-10-16 18:11:00,77.5,53.2,30.01,WNW,303,3.6,7.2,43,0.00,,,0.00,WUHU216WMR968SP,2013-10-17 01:11:00,
2013-10-16 18:16:00,77.0,52.8,30.01,NW,308,3.1,7.2,43,0.00,,,0.00,WUHU216WMR968SP,2013-10-17 01:16:00,
2013-10-16 18:21:00,76.6,52.4,30.01,SW,235,2.7,4.0,43,0.00,,,0.00,WUHU216WMR968SP,2013-10-17 01:21:00,
2013-10-16 18:26:00,76.3,52.1,30.01,West,276,0.0,5.4,43,0.00,,,0.00,WUHU216WMR968SP,2013-10-17 01:26:00,
2013-10-16 18:31:00,75.9,51.8,30.01,WNW,301,3.1,5.4,43,0.00,,,0.00,WUHU216WMR968SP,2013-10-17 01:31:00,
2013-10-16 18:36:00,75.6,51.5,30.01,WNW,303,0.0,5.4,43,0.00,,,0.00,WUHU216WMR968SP,2013-10-17 01:36:00,
2013-10-16 18:41:00,75.0,50.9,30.04,NW,311,0.0,3.6,43,0.00,,,0.00,WUHU216WMR968SP,2013-10-17 01:41:00,
2013-10-16 18:46:00,74.7,50.7,30.04,NW,311,0.0,3.6,43,0.00,,,0.00,WUHU216WMR968SP,2013-10-17 01:46:00,
2013-10-16 18:51:00,74.1,50.1,30.04,NW,311,0.0,0.0,43,0.00,,,0.00,WUHU216WMR968SP,2013-10-17 01:51:00,
2013-10-16 18:56:00,73.9,49.9,30.04,NW,311,0.0,0.0,43,0.00,,,0.00,WUHU216WMR968SP,2013-10-17 01:56:00,
2013-10-16 19:01:00,73.4,49.5,30.04,NW,311,0.0,0.0,43,0.00,,,0.00,WUHU216WMR968SP,2013-10-17 02:01:00,
2013-10-16 19:06:00,73.0,49.8,30.04,NW,311,0.0,0.0,44,0.00,,,0.00,WUHU216WMR968SP,2013-10-17 02:06:00,
2013-10-16 19:11:00,72.7,49.5,30.04,NW,311,0.0,0.0,44,0.00,,,0.00,WUHU216WMR968SP,2013-10-17 02:11:00,
2013-10-16 19:16:00,72.1,48.9,30.04,NW,311,0.0,0.0,44,0.00,,,0.00,WUHU216WMR968SP,2013-10-17 02:16:00,
2013-10-16 19:21:00,72.0,48.9,30.04,NW,311,0.0,0.0,44,0.00,,,0.00,WUHU216WMR968SP,2013-10-17 02:21:00,
2013-10-16 19:26:00,71.6,48.5,30.04,NNW,344,0.0,0.0,44,0.00,,,0.00,WUHU216WMR968SP,2013-10-17 02:26:00,
2013-10-16 19:31:00,71.2,48.1,30.04,NNW,344,0.0,0.0,44,0.00,,,0.00,WUHU216WMR968SP,2013-10-17 02:31:00,
2013-10-16 19:36:00,71.1,48.0,30.04,NNW,344,0.0,0.0,44,0.00,,,0.00,WUHU216WMR968SP,2013-10-17 02:36:00,
2013-10-16 19:41:00,70.9,47.8,30.07,NNW,344,0.0,0.0,44,0.00,,,0.00,WUHU216WMR968SP,2013-10-17 02:41:00,
2013-10-16 19:46:00,70.7,47.7,30.07,NNW,344,0.0,0.0,44,0.00,,,0.00,WUHU216WMR968SP,2013-10-17 02:46:00,
2013-10-16 19:51:00,70.7,47.7,30.07,NNW,344,0.0,0.0,44,0.00,,,0.00,WUHU216WMR968SP,2013-10-17 02:51:00,
2013-10-16 19:56:00,70.5,47.5,30.07,NNW,344,0.0,0.0,44,0.00,,,0.00,WUHU216WMR968SP,2013-10-17 02:56:00,
2013-10-16 20:01:00,70.3,47.3,30.07,NNW,344,0.0,0.0,44,0.00,,,0.00,WUHU216WMR968SP,2013-10-17 03:01:00,
2013-10-16 20:07:00,70.0,47.0,30.07,NNW,344,0.0,0.0,44,0.00,,,0.00,WUHU216WMR968SP,2013-10-17 03:07:00,
2013-10-16 20:12:00,69.6,47.3,30.07,NNW,344,0.0,0.0,45,0.00,,,0.00,WUHU216WMR968SP,2013-10-17 03:12:00,
2013-10-16 20:17:00,69.4,47.1,30.07,NNW,344,0.0,0.0,45,0.00,,,0.00,WUHU216WMR968SP,2013-10-17 03:17:00,
2013-10-16 20:22:00,69.1,46.8,30.07,NNW,344,0.0,0.0,45,0.00,,,0.00,WUHU216WMR968SP,2013-10-17 03:22:00,
2013-10-16 20:27:00,68.7,46.5,30.07,NNW,344,0.0,0.0,45,0.00,,,0.00,WUHU216WMR968SP,2013-10-17 03:27:00,
2013-10-16 20:32:00,68.7,46.5,30.07,NNW,344,0.0,0.0,45,0.00,,,0.00,WUHU216WMR968SP,2013-10-17 03:32:00,
2013-10-16 20:37:00,68.9,46.6,30.07,NNW,344,0.0,0.0,45,0.00,,,0.00,WUHU216WMR968SP,2013-10-17 03:37:00,
2013-10-16 20:42:00,68.9,46.6,30.10,NNW,344,0.0,0.0,45,0.00,,,0.00,WUHU216WMR968SP,2013-10-17 03:42:00,
2013-10-16 20:47:00,69.1,46.8,30.10,NNW,344,0.0,0.0,45,0.00,,,0.00,WUHU216WMR968SP,2013-10-17 03:47:00,
2013-10-16 20:52:00,69.1,46.8,30.10,NNW,344,0.0,0.0,45,0.00,,,0.00,WUHU216WMR968SP,2013-10-17 03:52:00,
2013-10-16 20:57:00,68.9,46.6,30.07,NNW,344,0.0,0.0,45,0.00,,,0.00,WUHU216WMR968SP,2013-10-17 03:57:00,
2013-10-16 21:02:00,68.5,46.3,30.07,NNW,344,0.0,0.0,45,0.00,,,0.00,WUHU216WMR968SP,2013-10-17 04:02:00,
2013-10-16 21:07:00,68.4,46.2,30.07,NNW,344,0.0,0.0,45,0.00,,,0.00,WUHU216WMR968SP,2013-10-17 04:07:00,
2013-10-16 21:12:00,68.2,46.0,30.10,NNW,344,0.0,0.0,45,0.00,,,0.00,WUHU216WMR968SP,2013-10-17 04:12:00,
2013-10-16 21:17:00,68.0,45.8,30.10,NNW,344,0.0,0.0,45,0.00,,,0.00,WUHU216WMR968SP,2013-10-17 04:17:00,
2013-10-16 21:22:00,68.0,45.8,30.10,NNW,344,0.0,0.0,45,0.00,,,0.00,WUHU216WMR968SP,2013-10-17 04:22:00,
2013-10-16 21:27:00,68.0,45.8,30.10,NNW,344,0.0,0.0,45,0.00,,,0.00,WUHU216WMR968SP,2013-10-17 04:27:00,
2013-10-16 21:32:00,68.0,45.8,30.10,NNW,344,0.0,0.0,45,0.00,,,0.00,WUHU216WMR968SP,2013-10-17 04:32:00,
2013-10-16 21:37:00,67.8,45.6,30.10,NNW,344,0.0,0.0,45,0.00,,,0.00,WUHU216WMR968SP,2013-10-17 04:37:00,
2013-10-16 21:42:00,67.6,45.5,30.10,NNW,344,0.0,0.0,45,0.00,,,0.00,WUHU216WMR968SP,2013-10-17 04:42:00,
2013-10-16 21:47:00,67.5,45.4,30.10,NNW,344,0.0,0.0,45,0.00,,,0.00,WUHU216WMR968SP,2013-10-17 04:47:00,
2013-10-16 21:52:00,67.5,45.4,30.10,NNW,344,0.0,0.0,45,0.00,,,0.00,WUHU216WMR968SP,2013-10-17 04:52:00,
2013-10-16 21:57:00,67.1,45.0,30.10,NNW,344,0.0,0.0,45,0.00,,,0.00,WUHU216WMR968SP,2013-10-17 04:57:00,
2013-10-16 22:02:00,66.6,44.5,30.10,NNW,344,0.0,0.0,45,0.00,,,0.00,WUHU216WMR968SP,2013-10-17 05:02:00,
2013-10-16 22:07:00,66.6,44.5,30.10,NNW,344,0.0,0.0,45,0.00,,,0.00,WUHU216WMR968SP,2013-10-17 05:07:00,
2013-10-16 22:12:00,66.4,44.4,30.10,NNW,344,0.0,0.0,45,0.00,,,0.00,WUHU216WMR968SP,2013-10-17 05:12:00,
2013-10-16 22:17:00,66.2,44.2,30.10,NNW,344,0.0,0.0,45,0.00,,,0.00,WUHU216WMR968SP,2013-10-17 05:17:00,
2013-10-16 22:22:00,66.0,44.0,30.10,NNW,344,0.0,0.0,45,0.00,,,0.00,WUHU216WMR968SP,2013-10-17 05:22:00,
2013-10-16 22:27:00,66.0,44.0,30.10,NNW,344,0.0,0.0,45,0.00,,,0.00,WUHU216WMR968SP,2013-10-17 05:27:00,
2013-10-16 22:32:00,65.7,43.7,30.10,NNW,344,0.0,0.0,45,0.00,,,0.00,WUHU216WMR968SP,2013-10-17 05:32:00,
2013-10-16 22:37:00,65.5,43.5,30.10,NNW,344,0.0,0.0,45,0.00,,,0.00,WUHU216WMR968SP,2013-10-17 05:37:00,
2013-10-16 22:42:00,64.9,43.0,30.10,NNW,344,0.0,0.0,45,0.00,,,0.00,WUHU216WMR968SP,2013-10-17 05:42:00,
2013-10-16 22:47:00,64.6,42.7,30.10,NNW,344,0.0,0.0,45,0.00,,,0.00,WUHU216WMR968SP,2013-10-17 05:47:00,
2013-10-16 22:52:00,64.0,42.8,30.10,NNW,344,0.0,0.0,46,0.00,,,0.00,WUHU216WMR968SP,2013-10-17 05:52:00,
2013-10-16 22:57:00,63.7,42.5,30.10,NNW,344,0.0,0.0,46,0.00,,,0.00,WUHU216WMR968SP,2013-10-17 05:57:00,
2013-10-16 23:02:00,63.7,42.5,30.10,NNW,344,0.0,0.0,46,0.00,,,0.00,WUHU216WMR968SP,2013-10-17 06:02:00,
2013-10-16 23:07:00,63.9,42.7,30.10,NNW,344,0.0,0.0,46,0.00,,,0.00,WUHU216WMR968SP,2013-10-17 06:07:00,
2013-10-16 23:12:00,63.9,42.7,30.10,NNW,344,0.0,0.0,46,0.00,,,0.00,WUHU216WMR968SP,2013-10-17 06:12:00,
2013-10-16 23:17:00,64.2,42.9,30.10,NNW,344,0.0,0.0,46,0.00,,,0.00,WUHU216WMR968SP,2013-10-17 06:17:00,
2013-10-16 23:22:00,64.2,42.9,30.10,NNW,344,0.0,0.0,46,0.00,,,0.00,WUHU216WMR968SP,2013-10-17 06:22:00,
2013-10-16 23:27:00,64.4,42.5,30.10,NNW,344,0.0,0.0,45,0.00,,,0.00,WUHU216WMR968SP,2013-10-17 06:27:00,
2013-10-16 23:32:00,64.6,42.7,30.10,NNW,344,0.0,0.0,45,0.00,,,0.00,WUHU216WMR968SP,2013-10-17 06:32:00,
2013-10-16 23:37:00,64.8,42.9,30.10,NNW,344,0.0,0.0,45,0.00,,,0.00,WUHU216WMR968SP,2013-10-17 06:37:00,
2013-10-16 23:42:00,65.5,43.5,30.10,NNW,344,0.0,0.0,45,0.00,,,0.00,WUHU216WMR968SP,2013-10-17 06:42:00,
2013-10-16 23:47:00,65.8,43.8,30.10,NNW,344,0.0,0.0,45,0.00,,,0.00,WUHU216WMR968SP,2013-10-17 06:47:00,
2013-10-16 23:52:00,66.2,44.2,30.10,NNW,344,0.0,0.0,45,0.00,,,0.00,WUHU216WMR968SP,2013-10-17 06:52:00,
2013-10-16 23:57:00,66.2,44.2,30.10,NNW,344,0.0,0.0,45,0.00,,,0.00,WUHU216WMR968SP,2013-10-17 06:57:00,